[[{"header":{"parameterUnit":"m.s-1","parameterCategory":2,"la1":30.2991,"la2":30.254,"lo1":-89.0895,"lo2":-89.0444,"dy":0.0017,"dx":0.0017,"nx":28,"ny":28,"refTime":"2025-05-16T09:00:00:Z","depth":"0","parameterNumber":2,"parameterNumberName":"U-component_of_CURRENTS"},"data":[0,0,0,0,0,0,0,0,0,0,0,0,0,0,0,0,0,0,0,0,0,0,0,0,0,0,0,0,0,0,0,0,0,0,0,0,0,0,0,0,0,0,0,0,0,0,0,0,0,0,0,0,0,0,0,0,0,0,0.3238,0.324,0,0.3449,0.3451,0.3454,0.3485,0.3483,0.3481,0.3479,0.3495,0.3497,0.35,0,0,0,0,0,0,0,0,0,0,0,0,0,0.3095,0.3096,0.3238,0.324,0.3242,0.3448,0.3452,0.3455,0.3486,0.3483,0.348,0.3478,0.3494,0.3497,0.35,0,0,0,0,0,0,0,0,0,0,0,0,0,0.3219,0.3096,0.3237,0.328,0.3286,0.3448,0.3452,0.3456,0.3486,0.3483,0.3479,0.3476,0.3493,0.3497,0.3501,0.3591,0,0,0.3512,0.3514,0,0,0,0,0,0,0,0,0.3211,0.3224,0.3271,0.3277,0.3284,0.3434,0.3407,0.349,0.3487,0.3414,0.3479,0.3475,0.3457,0.3464,0.3518,0.3591,0.3592,0.3512,0.3515,0.3516,0.3517,0,0,0,0,0,0,0,0.3203,0.3217,0.3325,0.3274,0.3282,0.3369,0.3381,0.3425,0.345,0.342,0.3422,0.3441,0.3459,0.3515,0.3518,0.3592,0.3512,0.3516,0.3518,0.3519,0.3733,0.3736,0,0,0,0,0,0,0.3162,0.3208,0.3318,0.3331,0.3235,0.3372,0.3387,0.3392,0.3454,0.3461,0.3444,0.3442,0.351,0.3514,0.3518,0.3593,0.3516,0.352,0.3522,0.3729,0.3734,0.3737,0,0,0,0,0,0,0.3158,0.3169,0.3309,0.3272,0.3295,0.3376,0.3384,0.3398,0.3457,0.3474,0.3477,0.3486,0.3508,0.3513,0.356,0.3594,0.3522,0.3525,0.3725,0.3731,0.3735,0.3763,0,0,0,0,0,0,0.3152,0.3166,0.317,0.3269,0.3296,0.3402,0.3388,0.3404,0.3472,0.3471,0.3512,0.351,0.3505,0.3555,0.3564,0.3597,0.3528,0.3721,0.3728,0.3734,0.3758,0.3768,0.3777,0,0,0,0,0,0.3146,0.3165,0.3169,0.3183,0.3293,0.3404,0.3428,0.3477,0.3477,0.3516,0.3537,0.3509,0.3602,0.3561,0.3571,0.3606,0.3718,0.3726,0.3733,0.3753,0.3766,0.3777,0,0,0,0,0,0,0.3114,0.3173,0.3178,0.3214,0.3297,0.3407,0.3453,0.3494,0.3555,0.3544,0.3552,0.3555,0.361,0.3622,0.3577,0.3693,0.3658,0.3668,0.3669,0.3682,0.3692,0.3658,0.3531,0,0,0,0,0,0.3105,0.3125,0.3208,0.324,0.3278,0.3372,0.3426,0.3465,0.3528,0.3554,0.3577,0.3612,0.366,0.3675,0.3715,0.3782,0.3795,0.3816,0.3826,0.3834,0.3819,0.3909,0.3924,0.3762,0.3762,0.3762,0,0,0.3101,0.3138,0.3149,0.3235,0.3301,0.3377,0.3397,0.3484,0.3542,0.3544,0.3615,0.3646,0.3688,0.3754,0.3781,0.3758,0.3888,0.3844,0.3849,0.383,0.3918,0.3934,0.3947,0.3768,0.3767,0.3766,0,0,0.3125,0.3138,0.3173,0.3238,0.3333,0.3394,0.3418,0.3528,0.3564,0.3653,0.3662,0.3709,0.3793,0.3819,0.3847,0.3945,0.394,0.3972,0.3987,0.4076,0.4088,0.41,0.4125,0.4138,0.3973,0.3973,0.3973,0,0.312,0.3166,0.3209,0.3271,0.332,0.3397,0.3463,0.3536,0.3643,0.368,0.3667,0.3811,0.3823,0.3914,0.3931,0.3961,0.3996,0.3928,0.4084,0.4096,0.4107,0.413,0.4144,0.3975,0.3975,0.3975,0.3975,0,0.3176,0.3219,0.3253,0.3334,0.3398,0.3471,0.3556,0.3623,0.3671,0.3737,0.3835,0.3875,0.3955,0.3977,0.3972,0.4071,0.4064,0.4084,0.4039,0.4124,0.4144,0.4158,0.3979,0.3978,0.3977,0.3977,0,0,0.3144,0.3265,0.3274,0.3317,0.343,0.349,0.3581,0.3692,0.3757,0.3843,0.3934,0.4002,0.4026,0.4059,0.408,0.413,0.4216,0.413,0.4134,0.4127,0.438,0.4232,0.4232,0.4275,0.4278,0.4281,0.4356,0,0.3177,0.3279,0.3332,0.3429,0.3491,0.3568,0.3646,0.3745,0.3828,0.3933,0.3998,0.409,0.4064,0.4105,0.4158,0.4225,0.4259,0.419,0.4323,0.4325,0.4161,0.4246,0.4074,0.4115,0.437,0.4372,0.4374,0,0.3204,0.3273,0.3361,0.3471,0.3501,0.356,0.368,0.3767,0.3919,0.3986,0.409,0.4158,0.4257,0.422,0.4357,0.4325,0.4338,0.4364,0.4369,0.4224,0.4204,0.4079,0.4131,0.4082,0.4396,0.4394,0.4392,0,0.3151,0.3282,0.3342,0.3382,0.3525,0.3563,0.3636,0.3774,0.3861,0.4024,0.4114,0.4246,0.4328,0.4403,0.4449,0.4429,0.4578,0.4573,0.4439,0.4428,0.4297,0.4268,0.4287,0.4639,0.4639,0.4639,0.4639,0,0.3153,0.3202,0.3317,0.3355,0.3431,0.3524,0.3623,0.372,0.3876,0.3994,0.413,0.4242,0.4381,0.4487,0.4504,0.4515,0.4637,0.4438,0.4448,0.43,0.4271,0.4233,0.4213,0.4642,0.4641,0.4641,0.464,0,0.3095,0.3168,0.325,0.3377,0.341,0.3459,0.3609,0.3695,0.3841,0.4004,0.4067,0.4277,0.4405,0.45,0.4621,0.4568,0.4478,0.4558,0.4332,0.4311,0.4087,0.4074,0.3902,0.3803,0.4426,0.4423,0.442,0,0.3075,0.3113,0.3242,0.3281,0.3334,0.3426,0.35,0.3657,0.3756,0.4016,0.409,0.427,0.4369,0.448,0.4443,0.4444,0.4368,0.4248,0.4153,0.4042,0.404,0.3892,0.3812,0.4002,0.3996,0.3992,0.3988,0,0.3052,0.3094,0.3166,0.3249,0.3312,0.3396,0.3503,0.3568,0.3769,0.3894,0.4057,0.4152,0.4263,0.4196,0.4178,0.4154,0.4052,0.4142,0.4132,0.3774,0.3517,0.3436,0.3956,0.3946,0.395,0.3953,0.3955,0.3957,0.3024,0.306,0.315,0.3216,0.3282,0.3328,0.3336,0.3459,0.3562,0.3676,0.3876,0.3912,0.3982,0.3926,0.3881,0.3714,0.3716,0.3607,0.3621,0.3497,0.3317,0.3686,0.3619,0.3621,0.3623,0.3625,0.3626,0,0.2987,0.3039,0.3111,0.3165,0.3179,0.3243,0.3312,0.3283,0.3309,0.3439,0.3513,0.3537,0.3474,0.3506,0.3404,0.3254,0.3116,0.3189,0.3006,0.2973,0.3415,0.3315,0.3053,0.3053,0.3053,0.3053,0.3053,0.3053,0.2967,0.301,0.3051,0.3045,0.3059,0.3001,0.2986,0.2956,0.2989,0.2956,0.294,0.3009,0.3209,0.3245,0.3101,0.3004,0.2843,0.2654,0.2711,0.3112,0.3154,0.3195,0.3099,0.2796,0.2795,0.2137,0.2133,0.2129]},{"header":{"parameterUnit":"m.s-1","parameterCategory":2,"la1":30.2991,"la2":30.254,"lo1":-89.0895,"lo2":-89.0444,"dy":0.0017,"dx":0.0017,"nx":28,"ny":28,"refTime":"2025-05-16T09:00:00:Z","depth":"0","parameterNumber":3,"parameterNumberName":"V-component_of_CURRENTS"},"data":[0,0,0,0,0,0,0,0,0,0,0,0,0,0,0,0,0,0,0,0,0,0,0,0,0,0,0,0,0,0,0,0,0,0,0,0,0,0,0,0,0,0,0,0,0,0,0,0,0,0,0,0,0,0,0,0,0,0,0.0188,0.0188,0,0.0203,0.0203,0.0203,0.0188,0.0187,0.0187,0.0186,0.0173,0.0173,0.0173,0,0,0,0,0,0,0,0,0,0,0,0,0,0.0189,0.0188,0.0188,0.0188,0.0188,0.0203,0.0203,0.0203,0.0188,0.0187,0.0186,0.0186,0.0173,0.0173,0.0173,0,0,0,0,0,0,0,0,0,0,0,0,0,0.0195,0.0188,0.0187,0.0182,0.0181,0.0203,0.0203,0.0203,0.0188,0.0187,0.0186,0.0185,0.0173,0.0173,0.0173,0.0195,0,0,0.0175,0.0175,0,0,0,0,0,0,0,0,0.0194,0.0195,0.0182,0.0182,0.0182,0.0192,0.0199,0.0199,0.0188,0.0186,0.0186,0.0185,0.0177,0.0177,0.0183,0.0195,0.0194,0.0175,0.0175,0.0175,0.0175,0,0,0,0,0,0,0,0.0194,0.0194,0.0194,0.0183,0.0182,0.0193,0.0192,0.0199,0.0187,0.0186,0.0185,0.0186,0.0176,0.0183,0.0183,0.0194,0.0175,0.0175,0.0175,0.0175,0.0228,0.0229,0,0,0,0,0,0,0.019,0.0194,0.0194,0.0194,0.0185,0.0194,0.0193,0.019,0.0187,0.0186,0.0187,0.0185,0.0183,0.0182,0.0182,0.0228,0.0175,0.0175,0.0176,0.0227,0.0229,0.023,0,0,0,0,0,0,0.019,0.019,0.0193,0.0194,0.0195,0.0194,0.0191,0.0191,0.0201,0.0188,0.0186,0.0198,0.0182,0.0181,0.0196,0.0227,0.0175,0.0176,0.0226,0.0228,0.0229,0.0308,0,0,0,0,0,0,0.019,0.0189,0.0191,0.0194,0.0195,0.022,0.0192,0.0192,0.0203,0.0201,0.0197,0.0194,0.0181,0.0196,0.0197,0.0226,0.0176,0.0224,0.0227,0.0229,0.0303,0.0312,0.0319,0,0,0,0,0,0.019,0.0203,0.0191,0.0192,0.0196,0.0221,0.0224,0.022,0.0205,0.0223,0.0213,0.0195,0.021,0.0197,0.0198,0.0228,0.0223,0.0226,0.0229,0.03,0.031,0.0319,0,0,0,0,0,0,0.021,0.0202,0.019,0.02,0.0213,0.0219,0.0233,0.0229,0.0237,0.0234,0.0213,0.0211,0.0233,0.0221,0.0207,0.0249,0.0213,0.0216,0.0267,0.0277,0.0284,0.0296,0.0176,0,0,0,0,0,0.0213,0.0215,0.0217,0.0227,0.0233,0.0234,0.0243,0.0245,0.025,0.0252,0.0247,0.0242,0.0246,0.0252,0.0253,0.0281,0.0259,0.0299,0.0307,0.0314,0.0324,0.0324,0.0332,0.0239,0.0239,0.0239,0,0,0.0222,0.0219,0.022,0.0231,0.0236,0.0271,0.0238,0.0264,0.0297,0.025,0.0289,0.027,0.0258,0.0287,0.0296,0.028,0.0326,0.0317,0.0323,0.0329,0.0327,0.0336,0.0345,0.024,0.024,0.024,0,0,0.0257,0.0241,0.0262,0.028,0.0297,0.0303,0.0313,0.0327,0.0336,0.0368,0.0339,0.034,0.0352,0.035,0.035,0.0402,0.0364,0.0399,0.0454,0.0455,0.0463,0.0469,0.0439,0.0443,0.0407,0.0407,0.0407,0,0.027,0.0297,0.0277,0.0314,0.034,0.0322,0.0372,0.0384,0.0403,0.0419,0.0392,0.0408,0.0387,0.0424,0.0431,0.0422,0.0402,0.0421,0.0465,0.0472,0.0477,0.0445,0.0448,0.0411,0.0411,0.041,0.041,0,0.0331,0.0358,0.0377,0.0412,0.0437,0.0479,0.0492,0.0517,0.0515,0.0523,0.0553,0.0522,0.0533,0.0521,0.0489,0.0523,0.0488,0.0472,0.0443,0.0491,0.0454,0.0455,0.0417,0.0416,0.0414,0.0413,0,0,0.0356,0.0409,0.0418,0.046,0.0498,0.0531,0.0582,0.063,0.0673,0.0667,0.0722,0.0697,0.0667,0.0663,0.0623,0.061,0.0611,0.0556,0.0555,0.0528,0.059,0.0534,0.0529,0.0603,0.0604,0.0605,0.0543,0,0.0417,0.0505,0.0514,0.0609,0.0663,0.067,0.0726,0.0762,0.0774,0.082,0.0786,0.0816,0.0728,0.0735,0.0708,0.0648,0.062,0.0627,0.0546,0.0543,0.049,0.0532,0.0548,0.0492,0.0544,0.0544,0.0544,0,0.048,0.0537,0.0636,0.0725,0.0749,0.0797,0.0881,0.0933,0.0974,0.0985,0.0991,0.0963,0.095,0.0867,0.0782,0.079,0.0693,0.0627,0.0624,0.0548,0.0491,0.0455,0.0492,0.0382,0.0546,0.0546,0.0546,0,0.0523,0.0623,0.0706,0.0739,0.0832,0.0878,0.0928,0.0982,0.1051,0.1093,0.1145,0.1104,0.1113,0.0999,0.0847,0.0823,0.0741,0.0697,0.055,0.0544,0.0529,0.052,0.0455,0.063,0.063,0.063,0.0631,0,0.059,0.0659,0.0734,0.0785,0.0903,0.0939,0.1059,0.1096,0.118,0.129,0.1234,0.1305,0.1147,0.108,0.091,0.074,0.0791,0.0567,0.0535,0.0554,0.0548,0.0427,0.0345,0.0628,0.0629,0.0629,0.0629,0,0.0628,0.0672,0.0782,0.0887,0.0927,0.1013,0.1155,0.1251,0.1303,0.1449,0.1477,0.1471,0.1384,0.1195,0.1018,0.0839,0.0584,0.0588,0.06,0.0571,0.0317,0.0238,0.0088,0.0019,0.0424,0.0422,0.0421,0,0.0657,0.0715,0.0851,0.0932,0.0983,0.1114,0.1221,0.1309,0.1422,0.1563,0.165,0.161,0.1608,0.1309,0.0994,0.0693,0.0546,0.0491,0.0441,0.0313,0.0203,0.0133,0.0082,0.0445,0.0444,0.0443,0.0442,0,0.0724,0.0763,0.0856,0.1016,0.1138,0.129,0.1439,0.1546,0.1681,0.1802,0.1938,0.1943,0.1665,0.1388,0.0957,0.0733,0.0403,0.0462,0.035,0.023,0.0133,0.0049,0.0449,0.0435,0.0436,0.0436,0.0437,0.0437,0.0771,0.0851,0.0969,0.1125,0.1269,0.1452,0.1585,0.1754,0.1947,0.2131,0.2128,0.2159,0.1758,0.118,0.0868,0.0345,0.032,0.0193,0.011,0.0053,-0.0018,0.0342,0.0279,0.0279,0.0279,0.0279,0.0279,0,0.0844,0.0936,0.1079,0.1268,0.1432,0.1495,0.1731,0.1877,0.2109,0.2251,0.2348,0.2173,0.1668,0.1155,0.0449,0.0087,-0.0052,-0.0103,-0.0169,-0.0204,0.015,0.0149,0.0033,0.0033,0.0033,0.0033,0.0033,0.0033,0.0889,0.1028,0.1106,0.1374,0.1509,0.1732,0.1869,0.2074,0.2219,0.2401,0.2424,0.2412,0.2075,0.0805,0.0012,-0.0178,-0.0401,-0.0487,-0.06,-0.0323,-0.0301,-0.0279,-0.0296,-0.0503,-0.0504,-0.0892,-0.0896,-0.0899]}],[{"header":{"parameterUnit":"m.s-1","parameterCategory":2,"la1":30.2991,"la2":30.254,"lo1":-89.0895,"lo2":-89.0444,"dy":0.0017,"dx":0.0017,"nx":28,"ny":28,"refTime":"2025-05-16T09:00:00:Z","depth":"2","parameterNumber":2,"parameterNumberName":"U-component_of_CURRENTS"},"data":[0,0,0,0,0,0,0,0,0,0,0,0,0,0,0,0,0,0,0,0,0,0,0,0,0,0,0,0,0,0,0,0,0,0,0,0,0,0,0,0,0,0,0,0,0,0,0,0,0,0,0,0,0,0,0,0,0,0,0.2971,0.2972,0,0.3067,0.3068,0.3069,0.3073,0.3073,0.3072,0.3071,0.3107,0.3109,0.3111,0,0,0,0,0,0,0,0,0,0,0,0,0,0.2874,0.2875,0.2971,0.2973,0.2974,0.3067,0.3068,0.3069,0.3074,0.3073,0.3071,0.307,0.3107,0.3109,0.3111,0,0,0,0,0,0,0,0,0,0,0,0,0,0.2935,0.2875,0.2971,0.2989,0.2992,0.3067,0.3068,0.307,0.3074,0.3072,0.3071,0.307,0.3106,0.3108,0.3111,0.3154,0,0,0.3119,0.312,0,0,0,0,0,0,0,0,0.2931,0.2938,0.2985,0.2988,0.2992,0.3059,0.3048,0.3096,0.3074,0.304,0.3071,0.3069,0.3088,0.3093,0.311,0.3156,0.3157,0.312,0.3121,0.3122,0.3123,0,0,0,0,0,0,0,0.2927,0.2934,0.3006,0.2987,0.2991,0.3022,0.3028,0.3057,0.3067,0.3043,0.3044,0.306,0.3089,0.3108,0.3111,0.3158,0.3119,0.3122,0.3124,0.3125,0.3291,0.3294,0,0,0,0,0,0,0.2918,0.293,0.3003,0.301,0.2961,0.3024,0.3031,0.3037,0.3068,0.3073,0.3061,0.306,0.3104,0.3108,0.3112,0.3206,0.3122,0.3125,0.3126,0.3288,0.3292,0.3295,0,0,0,0,0,0,0.2915,0.2923,0.3,0.2975,0.2987,0.3027,0.3034,0.3039,0.3072,0.3083,0.3086,0.3089,0.3103,0.3109,0.316,0.3205,0.3126,0.3128,0.3285,0.3289,0.3293,0.3366,0,0,0,0,0,0,0.2912,0.2921,0.2926,0.2974,0.2988,0.304,0.3036,0.3042,0.3084,0.3084,0.3108,0.3109,0.3102,0.3157,0.3163,0.3208,0.3131,0.3281,0.3287,0.3292,0.3361,0.3373,0.3383,0,0,0,0,0,0.2908,0.2918,0.2926,0.2935,0.2992,0.3041,0.3051,0.3073,0.3087,0.3099,0.3132,0.3109,0.3194,0.3161,0.3168,0.3214,0.3279,0.3285,0.3291,0.3355,0.337,0.3383,0,0,0,0,0,0,0.2883,0.2921,0.293,0.2952,0.2992,0.3042,0.3063,0.3091,0.313,0.3133,0.3145,0.315,0.3217,0.3211,0.3174,0.3281,0.3234,0.3242,0.328,0.3294,0.3305,0.3277,0.3133,0,0,0,0,0,0.288,0.2892,0.294,0.2958,0.2979,0.3029,0.3056,0.3076,0.3118,0.3135,0.3168,0.3204,0.325,0.3265,0.33,0.3354,0.3352,0.3391,0.3402,0.3411,0.3396,0.3465,0.3481,0.3315,0.3315,0.3315,0,0,0.2878,0.2901,0.2909,0.2954,0.2988,0.3042,0.3041,0.3085,0.3134,0.3134,0.3214,0.325,0.3277,0.3343,0.3371,0.3339,0.3458,0.3419,0.3427,0.3405,0.3474,0.3489,0.3504,0.332,0.3319,0.3318,0,0,0.2896,0.2899,0.2928,0.2959,0.3013,0.3051,0.307,0.3139,0.3163,0.3246,0.3267,0.3322,0.3398,0.342,0.3442,0.3537,0.3525,0.3564,0.3587,0.3657,0.367,0.3682,0.3695,0.3707,0.3559,0.356,0.356,0,0.2897,0.293,0.2946,0.2989,0.3016,0.3063,0.311,0.3158,0.324,0.3268,0.3275,0.3419,0.3431,0.3514,0.3541,0.3559,0.3585,0.3531,0.367,0.3681,0.3692,0.3702,0.3715,0.3564,0.3563,0.3563,0.3563,0,0.2936,0.2971,0.2991,0.3057,0.3093,0.3131,0.3195,0.3246,0.3298,0.3351,0.3451,0.3494,0.3566,0.3596,0.3592,0.3687,0.3675,0.3684,0.3628,0.3713,0.3719,0.373,0.357,0.3568,0.3567,0.3566,0,0,0.2916,0.3002,0.3009,0.3041,0.3119,0.3152,0.3233,0.331,0.3374,0.3457,0.354,0.3621,0.365,0.3675,0.3699,0.3746,0.3834,0.3745,0.3746,0.3742,0.3966,0.3835,0.3834,0.3886,0.3889,0.3891,0.3936,0,0.2943,0.3018,0.3056,0.3135,0.3178,0.3224,0.3296,0.3368,0.3447,0.3544,0.3595,0.37,0.3683,0.3737,0.378,0.3839,0.387,0.3818,0.3895,0.3896,0.3758,0.3846,0.3553,0.356,0.3947,0.3949,0.3951,0,0.2963,0.3011,0.3079,0.3161,0.3182,0.3238,0.3331,0.3405,0.3533,0.3597,0.3697,0.3766,0.3853,0.3834,0.3942,0.3922,0.3935,0.3962,0.3965,0.3817,0.3787,0.3541,0.3566,0.397,0.3968,0.3967,0.3965,0,0.2918,0.3018,0.3062,0.3087,0.32,0.3229,0.3294,0.3416,0.3487,0.3647,0.3732,0.3848,0.3925,0.3984,0.4018,0.401,0.412,0.4118,0.4002,0.3992,0.3737,0.3699,0.4179,0.4179,0.4179,0.4179,0.4178,0,0.2912,0.2948,0.3043,0.3065,0.3128,0.3204,0.3297,0.3383,0.3522,0.3628,0.3755,0.3854,0.3977,0.4051,0.4059,0.4054,0.4155,0.4005,0.4006,0.3753,0.3718,0.4066,0.4052,0.418,0.418,0.418,0.4179,0,0.2859,0.2918,0.2976,0.3078,0.3111,0.3151,0.3288,0.3361,0.3505,0.3649,0.3711,0.3887,0.3986,0.4056,0.4154,0.4097,0.4115,0.4078,0.3741,0.3699,0.3925,0.3915,0.3969,0.3965,0.3961,0.3959,0.3956,0,0.2838,0.2864,0.2966,0.2992,0.3037,0.312,0.3182,0.3336,0.3428,0.3656,0.3714,0.3869,0.3931,0.3996,0.3964,0.3946,0.4039,0.3643,0.3561,0.3913,0.391,0.3905,0.3899,0.3255,0.3247,0.324,0.3235,0,0.2798,0.2831,0.2881,0.2954,0.3008,0.3079,0.3183,0.3228,0.342,0.3516,0.363,0.3692,0.3786,0.3638,0.3628,0.3577,0.3625,0.3508,0.4002,0.3347,0.3242,0.3238,0.3256,0.3177,0.3183,0.3187,0.319,0.3193,0.2759,0.278,0.2852,0.2896,0.2967,0.3002,0.3,0.3098,0.3168,0.3248,0.3417,0.3388,0.3436,0.3256,0.314,0.3051,0.3308,0.3153,0.3173,0.32,0.3103,0.2998,0.2866,0.287,0.2873,0.2876,0.2878,0,0.2713,0.2739,0.2786,0.2827,0.2839,0.2929,0.2977,0.2915,0.2889,0.2996,0.3034,0.2782,0.2681,0.2714,0.2501,0.2485,0.2457,0.2365,0.2317,0.2378,0.2431,0.2294,0.1843,0.1839,0.1836,0.1833,0,0,0.2688,0.2691,0.2702,0.2676,0.2711,0.268,0.2658,0.2574,0.2579,0.2453,0.2412,0.2601,0.267,0.2243,0.2177,0.1976,0.2158,0.1887,0.2728,0.2737,0.2786,0.2905,0.2766,0,0,0,0,0]},{"header":{"parameterUnit":"m.s-1","parameterCategory":2,"la1":30.2991,"la2":30.254,"lo1":-89.0895,"lo2":-89.0444,"dy":0.0017,"dx":0.0017,"nx":28,"ny":28,"refTime":"2025-05-16T09:00:00:Z","depth":"2","parameterNumber":3,"parameterNumberName":"V-component_of_CURRENTS"},"data":[0,0,0,0,0,0,0,0,0,0,0,0,0,0,0,0,0,0,0,0,0,0,0,0,0,0,0,0,0,0,0,0,0,0,0,0,0,0,0,0,0,0,0,0,0,0,0,0,0,0,0,0,0,0,0,0,0,0,0.0075,0.0075,0,0.0065,0.0065,0.0065,0.0042,0.0041,0.0041,0.004,0.0021,0.0021,0.0021,0,0,0,0,0,0,0,0,0,0,0,0,0,0.0087,0.0086,0.0075,0.0075,0.0075,0.0065,0.0065,0.0065,0.0042,0.0041,0.0041,0.004,0.0021,0.0021,0.0021,0,0,0,0,0,0,0,0,0,0,0,0,0,0.008,0.0086,0.0075,0.0062,0.0061,0.0065,0.0065,0.0065,0.0042,0.0041,0.0041,0.004,0.0021,0.0021,0.0021,0.0034,0,0,0.0021,0.0021,0,0,0,0,0,0,0,0,0.008,0.0079,0.0064,0.0063,0.0062,0.0054,0.0062,0.0054,0.0042,0.0049,0.004,0.004,0.0032,0.0031,0.0031,0.0033,0.0033,0.0021,0.0021,0.002,0.002,0,0,0,0,0,0,0,0.008,0.0079,0.0071,0.0064,0.0063,0.0062,0.006,0.0061,0.0044,0.0048,0.0047,0.0046,0.0031,0.0031,0.003,0.0032,0.0021,0.0021,0.002,0.002,0.0047,0.0048,0,0,0,0,0,0,0.0082,0.008,0.0071,0.0071,0.007,0.0062,0.006,0.0057,0.0044,0.0042,0.0047,0.0045,0.0031,0.003,0.0029,0.0072,0.002,0.002,0.002,0.0047,0.0048,0.0048,0,0,0,0,0,0,0.0083,0.0081,0.0071,0.0075,0.0074,0.0062,0.006,0.0057,0.006,0.0043,0.004,0.0053,0.0031,0.0029,0.0041,0.007,0.002,0.002,0.0046,0.0047,0.0048,0.014,0,0,0,0,0,0,0.0083,0.0082,0.0084,0.0075,0.0074,0.0085,0.006,0.0058,0.0061,0.0059,0.0047,0.0045,0.003,0.0041,0.0041,0.0069,0.002,0.0045,0.0046,0.0048,0.0136,0.0144,0.0151,0,0,0,0,0,0.0083,0.0094,0.0084,0.0083,0.0076,0.0086,0.0086,0.0075,0.0062,0.0073,0.0064,0.0045,0.0049,0.0042,0.0041,0.007,0.0044,0.0046,0.0047,0.0132,0.0142,0.0151,0,0,0,0,0,0,0.0105,0.0093,0.0081,0.0088,0.0091,0.0083,0.0092,0.0083,0.0084,0.0083,0.0061,0.0058,0.0078,0.0059,0.0051,0.0079,0.0041,0.0043,0.0106,0.0115,0.0123,0.0136,0.002,0,0,0,0,0,0.0109,0.011,0.0103,0.011,0.0112,0.0103,0.0105,0.0101,0.0099,0.0098,0.0093,0.0084,0.0085,0.0088,0.0084,0.0105,0.0075,0.0119,0.0126,0.0133,0.0142,0.0128,0.0135,0.0054,0.0054,0.0054,0,0,0.0119,0.0113,0.0113,0.0114,0.0112,0.014,0.0103,0.0116,0.0143,0.0097,0.0133,0.0114,0.0095,0.0119,0.0125,0.0107,0.0138,0.0135,0.0142,0.0146,0.013,0.0138,0.0145,0.0055,0.0055,0.0055,0,0,0.0152,0.0135,0.0154,0.0163,0.0169,0.0168,0.0175,0.0177,0.018,0.0207,0.018,0.018,0.0186,0.0179,0.0175,0.0221,0.0179,0.0216,0.0271,0.0258,0.0264,0.027,0.0235,0.0237,0.0221,0.0222,0.0222,0,0.0166,0.0189,0.0163,0.0195,0.0212,0.0187,0.0228,0.0233,0.0241,0.0251,0.0231,0.0239,0.0217,0.0246,0.0255,0.0241,0.0216,0.0242,0.0269,0.0274,0.0278,0.0241,0.0242,0.0226,0.0226,0.0225,0.0225,0,0.022,0.0244,0.026,0.0289,0.0303,0.0334,0.0338,0.0356,0.0352,0.0353,0.0375,0.0347,0.0348,0.0341,0.0312,0.0336,0.0302,0.0281,0.025,0.0292,0.025,0.0249,0.0233,0.0231,0.023,0.0229,0,0,0.0246,0.029,0.0298,0.0335,0.0358,0.0382,0.0423,0.0454,0.0492,0.0482,0.0525,0.0506,0.0475,0.0467,0.043,0.0414,0.0411,0.0364,0.0361,0.0336,0.0367,0.0326,0.032,0.0397,0.0398,0.0398,0.0323,0,0.0303,0.0381,0.0383,0.0468,0.0514,0.0509,0.0557,0.0578,0.0584,0.0619,0.0578,0.0606,0.0528,0.0538,0.0505,0.0442,0.0414,0.0432,0.0323,0.032,0.0284,0.032,0.0328,0.026,0.0322,0.0321,0.0321,0,0.0362,0.0411,0.0496,0.0572,0.0591,0.0634,0.0699,0.0741,0.0764,0.077,0.0766,0.0735,0.0711,0.0645,0.0545,0.056,0.0469,0.0408,0.0403,0.0334,0.0278,0.0228,0.0256,0.0319,0.032,0.032,0.032,0,0.0404,0.0492,0.0563,0.059,0.0667,0.0705,0.0747,0.0786,0.0843,0.0871,0.0912,0.0857,0.0857,0.0741,0.0591,0.0576,0.0473,0.0437,0.031,0.0305,0.0274,0.0266,0.0368,0.0368,0.0368,0.0368,0.0368,0,0.0465,0.0527,0.0592,0.0637,0.0742,0.0767,0.0873,0.0903,0.0967,0.106,0.0994,0.1045,0.0884,0.0801,0.0638,0.0469,0.0503,0.0327,0.0292,0.0304,0.03,0.0321,0.0317,0.0365,0.0366,0.0366,0.0367,0,0.0502,0.054,0.0638,0.0728,0.0765,0.0842,0.0966,0.105,0.1091,0.1211,0.1234,0.1195,0.1088,0.0898,0.0715,0.0551,0.0385,0.0313,0.0324,0.0293,0.0209,0.021,0.0173,0.0171,0.017,0.0168,0.0167,0,0.0529,0.058,0.0702,0.0773,0.0818,0.0936,0.103,0.1108,0.1211,0.1312,0.1383,0.1317,0.1281,0.097,0.0688,0.0401,0.0367,0.0214,0.0186,0.0224,0.0193,0.0197,0.02,0.0173,0.0172,0.0171,0.0171,0,0.0587,0.0622,0.0704,0.0851,0.096,0.1098,0.1236,0.1327,0.1445,0.1527,0.161,0.1583,0.1313,0.1026,0.0634,0.0433,0.0257,0.0188,0.0243,0.0223,0.0218,0.019,0.0194,0.0163,0.0164,0.0165,0.0165,0.0165,0.0628,0.0699,0.0807,0.0944,0.1081,0.1247,0.1366,0.1505,0.1656,0.1788,0.176,0.1713,0.1405,0.0894,0.0553,0.0197,0.0226,0.0086,0.0091,0.0096,0.0112,0.0105,0.003,0.003,0.003,0.003,0.003,0,0.0694,0.0772,0.0898,0.1069,0.1222,0.1293,0.1504,0.1609,0.1777,0.1873,0.1917,0.1592,0.1274,0.091,0.0392,0.0083,0.0059,-0.0037,0.0012,0.0021,0.0029,0.0042,-0.0059,-0.006,-0.0061,-0.0062,0,0,0.0734,0.0853,0.0916,0.1157,0.1289,0.1503,0.1628,0.1764,0.1861,0.1905,0.188,0.1827,0.1387,0.099,0.0564,0.0261,0.0209,0.0185,0.0289,0.0407,0.0418,0.013,0.0164,0,0,0,0,0]}],[{"header":{"parameterUnit":"m.s-1","parameterCategory":2,"la1":30.2991,"la2":30.254,"lo1":-89.0895,"lo2":-89.0444,"dy":0.0017,"dx":0.0017,"nx":28,"ny":28,"refTime":"2025-05-16T09:00:00:Z","depth":"4","parameterNumber":2,"parameterNumberName":"U-component_of_CURRENTS"},"data":[0,0,0,0,0,0,0,0,0,0,0,0,0,0,0,0,0,0,0,0,0,0,0,0,0,0,0,0,0,0,0,0,0,0,0,0,0,0,0,0,0,0,0,0,0,0,0,0,0,0,0,0,0,0,0,0,0,0,0.1756,0.1756,0,0.1701,0.17,0.1699,0.1725,0.1727,0.1729,0.173,0.1847,0.1848,0.185,0,0,0,0,0,0,0,0,0,0,0,0,0,0.1775,0.1775,0.1756,0.1756,0.1755,0.1701,0.17,0.1699,0.1725,0.1727,0.1729,0.1731,0.1846,0.1848,0.185,0,0,0,0,0,0,0,0,0,0,0,0,0,0.1745,0.1775,0.1756,0.1764,0.1765,0.1701,0.17,0.1699,0.1725,0.1727,0.173,0.1732,0.1845,0.1848,0.185,0.1813,0,0,0.1857,0.1858,0,0,0,0,0,0,0,0,0.1747,0.1744,0.1763,0.1764,0.1764,0.1726,0.1749,0.1747,0.1724,0.1736,0.173,0.1733,0.1822,0.1827,0.1803,0.1818,0.1823,0.1857,0.1858,0.1859,0.186,0,0,0,0,0,0,0,0.1749,0.1746,0.1731,0.1763,0.1763,0.1734,0.1733,0.1747,0.1766,0.1735,0.1738,0.1736,0.1824,0.1801,0.1807,0.1825,0.1857,0.1859,0.186,0.1861,0.1992,0.1994,0,0,0,0,0,0,0.1765,0.1748,0.1733,0.173,0.1765,0.1732,0.1731,0.1733,0.1762,0.1769,0.1734,0.1738,0.1796,0.1804,0.1811,0.1914,0.1859,0.1861,0.1863,0.199,0.1993,0.1995,0,0,0,0,0,0,0.1766,0.1764,0.1735,0.174,0.1735,0.173,0.1731,0.173,0.1742,0.176,0.177,0.1752,0.1798,0.1808,0.1876,0.1914,0.1862,0.1865,0.1987,0.1991,0.1994,0.2027,0,0,0,0,0,0,0.1767,0.1765,0.1789,0.1741,0.1735,0.1738,0.1729,0.1727,0.1737,0.1742,0.1778,0.1789,0.1801,0.1873,0.1878,0.1916,0.1866,0.1985,0.1989,0.1993,0.2024,0.2031,0.2038,0,0,0,0,0,0.1767,0.178,0.1791,0.179,0.1763,0.1739,0.1734,0.1735,0.1735,0.1752,0.1786,0.1789,0.1902,0.1876,0.1882,0.1921,0.1983,0.1988,0.1992,0.202,0.203,0.2038,0,0,0,0,0,0,0.1798,0.1783,0.1794,0.1803,0.1796,0.1746,0.1756,0.1746,0.1774,0.1796,0.1807,0.1821,0.19,0.1905,0.1875,0.1974,0.1946,0.1952,0.1966,0.1975,0.1982,0.2006,0.1868,0,0,0,0,0,0.1816,0.183,0.1807,0.1822,0.1818,0.179,0.1785,0.1787,0.1792,0.1805,0.1838,0.1877,0.1912,0.1941,0.198,0.202,0.2036,0.2054,0.2061,0.2067,0.2094,0.2138,0.2151,0.201,0.201,0.201,0,0,0.1831,0.1827,0.1836,0.1831,0.1818,0.181,0.1794,0.1799,0.1816,0.1817,0.1877,0.191,0.1933,0.1993,0.2028,0.2007,0.2116,0.2073,0.2078,0.2102,0.2144,0.2157,0.2169,0.2014,0.2013,0.2013,0,0,0.1841,0.1864,0.187,0.1867,0.1868,0.185,0.186,0.1847,0.1877,0.1928,0.1937,0.2,0.2051,0.2075,0.2088,0.2157,0.2158,0.2169,0.2217,0.2258,0.227,0.228,0.2312,0.2325,0.2165,0.2165,0.2165,0,0.1867,0.1867,0.1869,0.1867,0.1873,0.187,0.1873,0.1886,0.1911,0.195,0.1975,0.2068,0.2092,0.2141,0.2176,0.2174,0.2193,0.2174,0.2266,0.2277,0.2287,0.2317,0.2331,0.2167,0.2167,0.2166,0.2166,0,0.186,0.1879,0.1879,0.1883,0.1893,0.1899,0.1914,0.1956,0.1999,0.2021,0.2124,0.2165,0.2225,0.2234,0.223,0.2307,0.2296,0.2272,0.2238,0.2303,0.233,0.2344,0.217,0.2169,0.2169,0.2168,0,0,0.1867,0.1876,0.1884,0.1893,0.1909,0.1907,0.1959,0.2,0.2048,0.2123,0.2194,0.2271,0.2314,0.2334,0.2338,0.2373,0.2457,0.2361,0.2362,0.2382,0.255,0.2377,0.2375,0.2443,0.2446,0.2449,0.2537,0,0.1866,0.1869,0.1885,0.1903,0.1897,0.1938,0.1984,0.2036,0.2107,0.2185,0.2253,0.2334,0.234,0.2387,0.2428,0.2457,0.2498,0.2436,0.2495,0.2497,0.2326,0.2386,0.2458,0.2547,0.255,0.2552,0.2554,0,0.1847,0.1853,0.1871,0.1914,0.1923,0.1954,0.204,0.2087,0.219,0.2259,0.2354,0.2405,0.2497,0.2486,0.2591,0.2552,0.2574,0.2584,0.2586,0.2428,0.2349,0.2473,0.2579,0.2577,0.2575,0.2573,0.2572,0,0.1814,0.1847,0.1869,0.1878,0.1923,0.1977,0.2027,0.2124,0.2189,0.2319,0.2388,0.2492,0.2573,0.2622,0.267,0.2645,0.2761,0.2718,0.2582,0.257,0.2684,0.2672,0.2796,0.2796,0.2796,0.2796,0.2796,0,0.1778,0.1799,0.1867,0.1867,0.1921,0.1981,0.2069,0.2135,0.226,0.2326,0.2438,0.2508,0.2617,0.2686,0.2704,0.2689,0.2798,0.2614,0.2586,0.2695,0.2683,0.2692,0.2679,0.2799,0.2798,0.2798,0.2797,0,0.1714,0.176,0.178,0.1859,0.1894,0.194,0.2071,0.2125,0.2269,0.236,0.241,0.2562,0.2647,0.2715,0.2798,0.2724,0.2724,0.2688,0.2816,0.2792,0.2499,0.2488,0.2546,0.2541,0.2537,0.2533,0.253,0,0.1673,0.1676,0.1757,0.1779,0.1822,0.191,0.1957,0.2106,0.2162,0.2363,0.2384,0.2539,0.2609,0.2598,0.2683,0.2695,0.266,0.264,0.2559,0.2509,0.2478,0.2473,0.2467,0.2523,0.2522,0.252,0.2519,0,0.1579,0.1628,0.1638,0.1687,0.1743,0.1793,0.1885,0.1921,0.2083,0.2233,0.2306,0.2358,0.2445,0.25,0.2525,0.2528,0.2637,0.2593,0.2601,0.2525,0.2481,0.2453,0.2453,0.2504,0.2506,0.2507,0.2508,0,0.1518,0.1505,0.1533,0.1565,0.1631,0.1653,0.1721,0.1786,0.1869,0.2088,0.2112,0.2272,0.2422,0.2416,0.2442,0.2427,0.2387,0.2295,0.2318,0.2336,0.2222,0.2132,0.2041,0,0,0,0,0,0.1442,0.1403,0.1409,0.1423,0.1488,0.1537,0.1647,0.1725,0.189,0.1881,0.1995,0.2061,0.2124,0.2221,0.2162,0.2341,0.2388,0.2261,0.2291,0.2418,0.2436,0.2319,0,0,0,0,0,0,0.1386,0.1374,0.135,0.1299,0.1306,0.1359,0.1436,0.1549,0.156,0.1743,0.1794,0.1931,0.2027,0.2135,0.2124,0.2146,0.2119,0.2365,0.236,0.2408,0.2424,0.2438,0.2324,0,0,0,0,0]},{"header":{"parameterUnit":"m.s-1","parameterCategory":2,"la1":30.2991,"la2":30.254,"lo1":-89.0895,"lo2":-89.0444,"dy":0.0017,"dx":0.0017,"nx":28,"ny":28,"refTime":"2025-05-16T09:00:00:Z","depth":"4","parameterNumber":3,"parameterNumberName":"V-component_of_CURRENTS"},"data":[0,0,0,0,0,0,0,0,0,0,0,0,0,0,0,0,0,0,0,0,0,0,0,0,0,0,0,0,0,0,0,0,0,0,0,0,0,0,0,0,0,0,0,0,0,0,0,0,0,0,0,0,0,0,0,0,0,0,0.0027,0.0027,0,0.0026,0.0026,0.0026,0.0011,0.0011,0.001,0.001,-0.0009,-0.001,-0.001,0,0,0,0,0,0,0,0,0,0,0,0,0,0.0028,0.0028,0.0027,0.0027,0.0027,0.0026,0.0026,0.0026,0.0011,0.0011,0.001,0.001,-0.0009,-0.001,-0.001,0,0,0,0,0,0,0,0,0,0,0,0,0,0.0027,0.0028,0.0027,0.002,0.002,0.0026,0.0026,0.0026,0.0011,0.0011,0.001,0.001,-0.0009,-0.0009,-0.001,-0.0003,0,0,-0.0011,-0.0011,0,0,0,0,0,0,0,0,0.0027,0.0026,0.0021,0.0021,0.002,0.0019,0.0019,0.0016,0.0011,0.0013,0.001,0.0009,-0.0001,-0.0002,-0.0002,-0.0003,-0.0004,-0.0011,-0.0011,-0.0011,-0.0011,0,0,0,0,0,0,0,0.0027,0.0026,0.0026,0.0021,0.0021,0.0021,0.002,0.0019,0.0008,0.0013,0.0012,0.0014,-0.0001,-0.0001,-0.0002,-0.0005,-0.0011,-0.0011,-0.0011,-0.0012,-0.0001,-0.0,0,0,0,0,0,0,0.0028,0.0027,0.0026,0.0026,0.0023,0.0022,0.0021,0.0019,0.0008,0.0007,0.0014,0.0013,-0.0001,-0.0002,-0.0003,0.0017,-0.0011,-0.0012,-0.0012,-0.0001,-0.0,0.0,0,0,0,0,0,0,0.0028,0.0028,0.0026,0.0027,0.0027,0.0022,0.0021,0.0019,0.002,0.0009,0.0007,0.0017,-0.0001,-0.0003,0.0005,0.0015,-0.0012,-0.0012,-0.0002,-0.0001,-0.0,0.0049,0,0,0,0,0,0,0.0028,0.0028,0.0031,0.0027,0.0027,0.0037,0.0021,0.002,0.0022,0.0021,0.0011,0.0009,-0.0002,0.0006,0.0005,0.0014,-0.0012,-0.0002,-0.0001,-0.0,0.0046,0.0051,0.0055,0,0,0,0,0,0.0028,0.0037,0.0031,0.0031,0.0029,0.0038,0.0039,0.0033,0.0023,0.0031,0.0025,0.0009,0.001,0.0006,0.0005,0.0015,-0.0003,-0.0002,-0.0,0.0045,0.005,0.0055,0,0,0,0,0,0,0.0042,0.0036,0.0029,0.0036,0.0039,0.0036,0.0044,0.0037,0.0038,0.0038,0.0021,0.0019,0.0026,0.0015,0.0011,0.0019,-0.0001,-0.0,0.0034,0.0039,0.0043,0.0055,-0.0013,0,0,0,0,0,0.0045,0.0047,0.0045,0.0051,0.0054,0.0049,0.0052,0.0049,0.0048,0.0048,0.0043,0.0035,0.003,0.0031,0.0026,0.0036,0.0011,0.0039,0.0043,0.0047,0.0055,0.0025,0.0027,0.0004,0.0004,0.0004,0,0,0.0053,0.005,0.0051,0.0054,0.0056,0.0074,0.005,0.0061,0.0076,0.0047,0.0068,0.0052,0.0036,0.0046,0.0048,0.0039,0.004,0.0048,0.0052,0.0058,0.0026,0.0028,0.003,0.0005,0.0004,0.0004,0,0,0.0076,0.0067,0.0081,0.0089,0.0096,0.0094,0.0098,0.0101,0.0102,0.0119,0.0097,0.009,0.0091,0.008,0.0074,0.0099,0.0062,0.0093,0.0127,0.0098,0.0099,0.01,0.0069,0.0067,0.0097,0.0097,0.0097,0,0.0087,0.0104,0.0089,0.0111,0.0124,0.0106,0.0134,0.0134,0.014,0.0144,0.0134,0.0124,0.0109,0.0111,0.0119,0.0109,0.0084,0.011,0.0103,0.0104,0.0104,0.0072,0.0069,0.0099,0.0099,0.0099,0.0098,0,0.0125,0.0143,0.0155,0.0174,0.0185,0.0206,0.0206,0.0217,0.0212,0.0208,0.021,0.0187,0.0181,0.017,0.0155,0.015,0.0129,0.011,0.0091,0.0109,0.0074,0.007,0.0103,0.0102,0.0101,0.01,0,0,0.0142,0.0175,0.0182,0.0207,0.0222,0.0238,0.0262,0.0277,0.0295,0.0283,0.0299,0.0278,0.0254,0.0244,0.0214,0.0189,0.0166,0.0156,0.0154,0.0128,0.0098,0.0086,0.008,0.0144,0.0144,0.0143,0.0071,0,0.0181,0.0235,0.0238,0.0295,0.0326,0.0322,0.0351,0.0358,0.0355,0.0366,0.0325,0.0329,0.0284,0.0283,0.0249,0.0188,0.0159,0.0188,0.0083,0.008,0.0068,0.0077,0.0142,0.0068,0.0067,0.0067,0.0066,0,0.022,0.0254,0.0315,0.0365,0.0378,0.0407,0.0444,0.0469,0.0467,0.0464,0.0444,0.0408,0.0371,0.0332,0.0233,0.0252,0.0184,0.0131,0.0126,0.0098,0.0061,0.0046,0.0059,0.0059,0.006,0.006,0.0061,0,0.0244,0.0308,0.0358,0.0377,0.0428,0.0456,0.0484,0.0499,0.0533,0.0526,0.0539,0.0475,0.046,0.036,0.0245,0.0239,0.0129,0.0105,0.0029,0.0027,0.0036,0.0036,0.0038,0.0038,0.0038,0.0038,0.0039,0,0.0282,0.0326,0.0378,0.0408,0.048,0.05,0.0569,0.0583,0.0615,0.0657,0.0594,0.0601,0.0468,0.0385,0.0266,0.0136,0.0141,0.0039,0.001,0.0058,0.0061,0.0033,0.0033,0.0036,0.0036,0.0037,0.0037,0,0.03,0.0332,0.0401,0.0468,0.0494,0.0549,0.0638,0.0689,0.0705,0.0756,0.0759,0.0701,0.0592,0.0443,0.0285,0.0179,0.0045,-0.0002,0.0063,0.0038,-0.0044,-0.0041,-0.0093,-0.0094,-0.0095,-0.0095,-0.0096,0,0.0313,0.0349,0.0442,0.0495,0.053,0.0616,0.068,0.0732,0.0785,0.0815,0.0838,0.076,0.0695,0.0467,0.0301,0.0069,0.0034,-0.0042,-0.0047,-0.0034,-0.0057,-0.0052,-0.0047,-0.0097,-0.0097,-0.0098,-0.0098,0,0.0342,0.0374,0.043,0.0535,0.0614,0.0712,0.0799,0.0846,0.0905,0.0916,0.0908,0.0791,0.0673,0.0482,0.0303,0.0135,0.0,-0.0052,-0.0051,-0.0056,-0.004,-0.006,-0.0055,-0.0101,-0.01,-0.01,-0.01,0,0.0362,0.0408,0.0481,0.0576,0.0676,0.0776,0.0826,0.0891,0.0945,0.0967,0.0963,0.083,0.0759,0.0517,0.0349,0.0183,0.0136,0.007,0.0063,0.0064,0.0124,0.0168,0.0152,0,0,0,0,0,0.0383,0.0434,0.052,0.0625,0.0723,0.0786,0.0891,0.0935,0.0983,0.0987,0.098,0.0866,0.0636,0.0541,0.0373,0.0317,0.0094,0.0112,0.0011,-0.0116,-0.0113,-0.0071,0,0,0,0,0,0,0.0399,0.0471,0.0516,0.0642,0.0721,0.0837,0.0911,0.095,0.0953,0.0971,0.0857,0.0806,0.0585,0.073,0.0364,0.0315,0.0223,0.0009,0.0004,-0.0118,-0.0115,-0.0112,-0.0068,0,0,0,0,0]}]]